GAOFEN-12 01

Last updated on Mon Sep 07 2026 00:02:46 GMT+0000 (Coordinated Universal Time)

1 44819U 19082A 26249.58914569 .00000194 00000+0 32003-4 0 9991 2 44819 97.8150 253.8375 0002331 105.0582 255.0889 14.80513194366133
UTC large
Height (km)
Speed (km/s)
/
Latitude / Longitude
Inclination (degrees)
Orbital Period (minutes)
Azimuth
Elevation
Range (km)
Doppler Factor

Next 0 passes for location: London (51.5072 / 0.1276)

No passes found over London.
GAOFEN-12 01